Starlink 31647

operational
NORAD ID: 59389 Int'l Des: 2024-062 Owner: SPXS Country: US Constellation: starlink
LEOCIRCULAR

About Starlink 31647

Description loading...

Live Position

Loading 3D Globe...

Upcoming Passes

Altitude History

Altitude vs Time

uPlot chart will show altitude changes over time

Two-Line Element Set

1 59389U 24062R 25350.97645733 .00000718 00000-0 36362-4 0 9997
2 59389 53.1616 280.1771 0001244 91.7520 268.3623 15.30198672 97007
Epoch: Dec 16, 2025 • Age: 9 hours

Current Status

Altitude 476.8 km
Velocity 7.63 km/s
Sub-Earth Point -3.59°S, 57.13°E
Launch Date Apr 2, 2024
Age 1.7 years
Type internet

Technical Details

Classification Payload
Mass 730.00 kg
Dry Mass 700.00 kg
Total Mass 730.00 kg
Length 0.30 m
Diameter 4.10 m
Span 29.00 m
Shape Box + pan
Manufacturer SPXS
Bus Type Starlink V2M
Phase Status In Orbit
Owner/State SPXS/US

Large Constellations

Loading constellations...